Regional Weather Roundup
Issued by NWS

Home | Current Version | Previous Version | Text Only | Print | Product List | Glossary On
Versions: 1 2 3 4 5 6 7 8 9 10 11 12 13 14 15 16 17 18 19 20 21 22 23 24 25 26 27 28 29 30 31 32 33 34 35 36 37 38 39 40 41 42 43 44 45 46 47 48 49 50
000
ASUS43 KTOP 011459
RWRKS

WEATHER ROUNDUP FOR KANSAS
NATIONAL WEATHER SERVICE GOODLAND KS
900 AM CST SUN FEB 01 2015

NOTE:  "FAIR" INDICATES FEW OR NO CLOUDS BELOW 12,000 FEET WITH NO
SIGNIFICANT WEATHER AND/OR OBSTRUCTIONS TO VISIBILITY.

KSZ001>006-013>018-027>032-041>047-011600-
NORTHWEST KANSAS

CITY           SKY/WX    TMP DP  RH WIND       PRES   REMARKS
GOODLAND       SUNNY     16  12  84 N20G30    30.14R WCI  -1
HAYS           CLOUDY    18   5  57 NW25G35   30.10R WCI  -1
HILL CITY      CLOUDY    16  10  77 N25G35    30.14R WCI  -3
RUSSELL        FLURRIES  18  14  84 NW29G38   30.07R WCI  -1
$$

KSZ061>065-074>080-084>089-011600-
SOUTHWEST KANSAS

CITY           SKY/WX    TMP DP  RH WIND       PRES   REMARKS
DODGE CITY     SUNNY     22  13  68 N25G39    30.08R WCI   5
ELKHART          N/A     27  17  66 N13         N/A  WCI  16
GARDEN CITY    MOSUNNY   22  15  75 N30G41    30.10R WCI   4
LIBERAL        SUNNY     27  18  69 N26G37    30.11R WCI  11
$$

KSZ066>073-081>083-090>101-011600-
SOUTHEAST KANSAS

CITY           SKY/WX    TMP DP  RH WIND       PRES   REMARKS
CHANUTE        CLOUDY    37  34  89 NW22G35   29.80R WCI  26
COFFEYVILLE    CLOUDY    38  34  85 NW23G33   29.84R WCI  27
HUTCHINSON     CLOUDY    24  17  74 NW30G39   30.00R WCI   7
MEDICINE LODGE   N/A     25  18  74 N24G47    30.03R WCI   9
NEWTON         CLOUDY    25  16  68 NW30G39   29.95R WCI   8
PARSONS        CLOUDY    38  35  89 NW26G36   29.82R WCI  26
WICHITA INTL   CLOUDY    27  20  75 NW29G38   29.97R WCI  11
WICHITA JABRA  CLOUDY    26  26 100 NW23G36   29.95R WCI  11
WICHITA MCCONL CLOUDY    27  23  86 NW24G36   29.95R WCI  12
WINFIELD       CLOUDY    31  26  82 NW25G33   29.95R WCI  17
$$

KSZ007>012-019>026-033>040-048>060-102>105-011600-
NORTHEAST KANSAS

CITY           SKY/WX    TMP DP  RH WIND       PRES   REMARKS
CONCORDIA      LGT SNOW  15  12  88 N28G40    30.02R VSB 1   WCI  -5
EMPORIA        CLOUDY    30  27  88 NW25G33   29.85R WCI  16
LAWRENCE       LGT SNOW  33  31  92 NW14      29.78R FOG     WCI  23
MANHATTAN      SNOW      24  21  88 NW16G31   29.93R VSB 1/2 WCI  11
OLATHE IND     LGT SNOW  33  33 100 NW15      29.75R FOG     WCI  23
OLATHE EXE     LGT SNOW  34  34 100 NW15G29   29.73R FOG     WCI  24
SALINA         LGT SNOW  21  16  81 NW36G43   30.01R WCI   1
TOPEKA BILLARD LGT SNOW  33  32  96 NW10      29.81R FOG     WCI  25
TOPEKA FORBES  LGT SNOW  34  32  92 NW17      29.79R FOG     WCI  23
$$


USA.gov is the U.S. government's official web portal to all federal, state and local government web resources and services.